Faith, SD

3:48 PM MST on November 23, 2017 (GMT -0700)
Faith

Weather History for KD07 - February, 2014

Change the Weather History Date:

Sunday, February 16, 2014

  Actual Average Record
Temperature  
Mean Temperature 25 °F 24 °F  
Max Temperature 34 °F 34 °F 63 °F (2017)
Min Temperature 16 °F 14 °F -7 °F (2006)
Degree Days  
Heating Degree Days 40 41  
Month to date heating degree days 898 686  
Since 1 July heating degree days 5592 5215  
Cooling Degree Days 0 0  
Month to date cooling degree days 0 0  
Year to date cooling degree days 0 0  
Moisture  
Dew Point 23 °F    
Average Humidity 92    
Maximum Humidity 100    
Minimum Humidity 84    
Precipitation  
Precipitation 0.16 in 0.02 in 0.16 in (2014)
Month to date precipitation 0.38 0.28  
Year to date precipitation 0.58 0.48  
Sea Level Pressure  
Sea Level Pressure 29.79 in    
Wind  
Wind Speed 16 mph (SE)    
Max Wind Speed 29 mph    
Max Gust Speed 38 mph    
T = Trace of Precipitation, MM = Missing Value Source: NWS Daily Summary

Daily Weather History Graph

Daily Weather History Graph

Search for Another Location

Airport or City:

Trip Planner

Search our weather history database for the weather conditions in past years. The results will help you decide how hot, cold, wet, or windy it might be!

Date:

Astronomy

Feb. 16, 2014 Rise Set
Actual Time 6:47 AM MST 5:17 PM MST
Civil Twilight 6:17 AM MST 5:47 PM MST
Nautical Twilight 5:42 AM MST 6:22 PM MST
Astronomical Twilight 5:08 AM MST 6:56 PM MST
Moon 7:23 PM MST (2/16) 7:11 AM MST (2/16)
Length of Visible Light 11h 30m
Length of Day
10h 30m
Full, 97% of the Moon is Illuminated
Feb 16
Full
Feb 22
Last Quarter
Mar 1
New
Mar 8
First Quarter
Mar 16
Full

Hourly Weather History & Observations

Time (MST) Temp. Windchill Dew Point Humidity Pressure Visibility Wind Dir Wind Speed Gust Speed Precip Events Conditions
12:56 AM 21.9 °F 8.7 °F 19.9 °F 92% 30.04 in - South 15.0 mph - N/A   Unknown
1:56 AM 21.0 °F 7.6 °F 19.9 °F 96% 30.00 in - SSE 15.0 mph 23.0 mph N/A   Unknown
2:56 AM 19.9 °F 3.9 °F 17.1 °F 89% 29.97 in - SE 20.7 mph 25.3 mph N/A   Unknown
3:56 AM 19.0 °F 3.2 °F 17.1 °F 92% 29.94 in - SE 19.6 mph 26.5 mph N/A   Unknown
4:56 AM 18.0 °F 2.6 °F 16.0 °F 92% 29.90 in - SE 17.3 mph 27.6 mph N/A   Unknown
5:56 AM 17.1 °F 1.0 °F 14.0 °F 88% 29.88 in - SE 18.4 mph 28.8 mph N/A   Unknown
6:56 AM 17.1 °F -0.6 °F 14.0 °F 88% 29.83 in - SE 23.0 mph 31.1 mph N/A   Unknown
7:56 AM 16.0 °F -1.7 °F 12.9 °F 88% 29.83 in - SE 21.9 mph 29.9 mph N/A   Unknown
8:56 AM 18.0 °F 0.9 °F 15.1 °F 88% 29.79 in - SE 21.9 mph 27.6 mph N/A   Unknown
9:56 AM 19.9 °F 3.5 °F 18.0 °F 92% 29.76 in - SE 21.9 mph 27.6 mph N/A   Unknown
10:56 AM 21.9 °F 6.2 °F 19.0 °F 89% 29.72 in - SE 21.9 mph 27.6 mph N/A   Unknown
11:56 AM 25.0 °F 11.7 °F 21.9 °F 88% 29.67 in - SE 17.3 mph 26.5 mph N/A   Unknown
12:56 PM 28.9 °F 16.1 °F 26.1 °F 89% 29.63 in - SE 19.6 mph 24.2 mph N/A   Unknown
1:56 PM 30.0 °F 19.1 °F 28.0 °F 92% 29.61 in - SE 15.0 mph - N/A   Unknown
2:56 PM 30.9 °F 21.7 °F 28.0 °F 89% 29.60 in - ESE 11.5 mph - N/A   Unknown
3:56 PM 30.0 °F 22.4 °F 27.0 °F 88% 29.60 in - East 8.1 mph - N/A   Unknown
4:56 PM 28.9 °F 21.9 °F 26.1 °F 89% 29.64 in - North 6.9 mph - N/A   Unknown
5:56 PM 27.0 °F 15.2 °F 25.0 °F 92% 29.69 in - North 15.0 mph - N/A   Unknown
6:56 PM 27.0 °F 15.6 °F 25.0 °F 92% 29.76 in - NNW 13.8 mph - N/A   Unknown
7:56 PM 27.0 °F 19.5 °F 25.0 °F 92% 29.78 in - NNW 6.9 mph - 0.09 in   Unknown
8:56 PM 32.0 °F 20.8 °F 32.0 °F 100% 29.80 in - NNW 17.3 mph - 0.06 in   Unknown
9:56 PM 33.1 °F 24.9 °F 32.0 °F 96% 29.82 in - WNW 10.4 mph - 0.01 in   Unknown
10:56 PM 34.0 °F 23.8 °F 32.0 °F 92% 29.83 in - West 16.1 mph - N/A   Unknown
11:56 PM 34.0 °F 22.7 °F 30.9 °F 89% 29.83 in - West 19.6 mph - N/A   Unknown